www.pogodaiklimat.ru

Погода и климат >> Архив погоды >> Австралия >> Квинсленд >> Таргоминда


ПОГОДА в Таргоминде

  • Прогноз погоды в Таргоминде
  • Монитор погоды в Таргоминде

АРХИВ ПОГОДЫ в Таргоминде

Время (UTC), дата Ветер
(напр.,м/с)
 
Видим.   Явления Облачность Т
(С)
Тd
(С)
f
(%)
Тe
(С)
Тes
(С)
Комфортность P
(гПа)
Po
(гПа)
Тmin
(С)
Tmax
(С)
R
(мм)
R24
(мм)
S
(см)
02 10.06 С 5 н/о н/о +22.6 +14.7 61 +26 +26 жарко 1019.7 1004.0 +13.2
03 10.06 С 4 н/о н/о +24.0 +14.7 56 +27 +27 жарко 1018.7 1003.0
05 10.06 СЗ 3 н/о н/о +25.6 +12.4 44 +27 +27 жарко 1017.8 1002.1
06 10.06 СЗ 2 н/о н/о +25.9 +12.0 42 +27 +27 жарко 1017.9 1002.2
08 10.06 Ю 2 н/о н/о +22.2 +14.3 61 +25 +25 комфорт 1018.8 1003.1
09 10.06 В 2 н/о н/о +19.8 +14.6 72 +22 +22 комфорт 1019.5 1003.8
11 10.06 СВ 3 н/о н/о +17.5 +13.8 79 +18 +18 1020.6 1004.9
12 10.06 СВ 3 н/о н/о +18.3 +13.6 74 +19 +19 1020.4 1004.7
14 10.06 СВ 3 н/о н/о +17.5 +13.2 76 +18 +18 1020.4 1004.7 +26.4
15 10.06 СВ 3 н/о н/о +16.6 +12.4 76 +17 +17 1020.3 1004.6
17 10.06 СВ 2 н/о н/о +15.2 +11.4 78 +15 +15 1020.2 1004.5
18 10.06 штиль 0 н/о н/о +14.0 +11.5 85 +14 +14 1020.2 1004.5
20 10.06 СВ 2 н/о н/о +12.5 +10.4 87 +12 +12 1020.8 1005.1
21 10.06 В 2 н/о н/о +12.3 +10.2 87 +12 +12 1022.0 1006.2
23 10.06 СВ 3 н/о н/о +17.0 +11.3 69 +17 +17 1023.4 1007.6
00 11.06 С 3 н/о н/о +19.6 +12.6 64 +21 +21 комфорт 1024.0 1008.2
02 11.06 СВ 4 н/о н/о +23.4 +12.1 49 +26 +26 жарко 1023.0 1007.2 +12.1
03 11.06 СВ 2 н/о н/о +25.0 +11.6 43 +26 +26 жарко 1021.9 1006.1
05 11.06 В 4 н/о н/о +26.9 +6.9 28 +26 +26 жарко 1020.8 1005.1
06 11.06 В 3 н/о н/о +27.0 +5.9 26 +26 +26 жарко 1020.6 1004.9
08 11.06 В 3 н/о н/о +23.3 +7.4 36 +24 +24 комфорт 1021.3 1005.5
09 11.06 В 3 н/о н/о +21.5 +8.1 42 +23 +23 комфорт 1021.7 1005.9
11 11.06 В 3 н/о н/о +20.1 +7.1 43 +21 +21 комфорт 1022.2 1006.4
12 11.06 В 4 н/о н/о +19.6 +7.4 45 +20 +20 1022.1 1006.3
14 11.06 В 3 н/о н/о +17.8 +8.4 54 +18 +18 1021.7 1005.9 +27.4
15 11.06 В 2 н/о н/о +15.9 +8.2 60 +16 +16 1021.5 1005.7
17 11.06 В 2 н/о н/о +13.5 +9.4 76 +13 +13 1020.7 1005.0
18 11.06 В 3 н/о н/о +14.1 +9.3 73 +13 +13 1020.0 1004.3
20 11.06 СВ 4 н/о н/о +14.4 +9.0 70 +13 +13 1019.7 1004.0
21 11.06 СВ 4 н/о н/о +13.9 +8.9 72 +12 +12 1020.2 1004.5
23 11.06 С 6 н/о н/о +17.7 +9.8 60 +17 +17 1020.6 1004.9
00 12.06 С 7 н/о н/о +21.8 +10.0 47 +23 +23 комфорт 1020.7 1005.0
02 12.06 С 8 н/о н/о +24.8 +9.1 37 +25 +25 комфорт 1019.3 1003.6 +13.3
03 12.06 С 8 н/о н/о +26.0 +8.5 33 +26 +26 жарко 1018.7 1003.0
05 12.06 С 6 н/о н/о +26.7 +8.2 31 +27 +27 жарко 1017.6 1001.9
06 12.06 С 6 н/о н/о +26.5 +8.5 32 +27 +27 жарко 1017.7 1002.0
08 12.06 С 3 н/о 4/0
[]
+23.1 +9.5 42 +25 +25 комфорт 1017.6 1001.9
09 12.06 ЮЗ 3 н/о н/о +21.3 +10.5 50 +23 +23 комфорт 1019.0 1003.3
11 12.06 СВ 3 н/о 4/0
[]
+18.6 +10.9 61 +19 +19 1018.9 1003.2
12 12.06 С 2 н/о н/о +18.0 +10.4 61 +19 +19 1019.1 1003.4
14 12.06 СВ 3 н/о 8/0
[]
+17.2 +10.1 63 +17 +17 1018.3 1002.6 +27.2
15 12.06 С 3 н/о н/о +17.2 +9.4 60 +17 +17 1017.8 1002.1
17 12.06 С 2 н/о 1/0
[]
+16.5 +9.2 62 +17 +17 1017.5 1001.8
18 12.06 С 3 н/о н/о +16.2 +9.6 65 +16 +16 1017.0 1001.3
20 12.06 С 3 н/о 6/0
[]
+16.1 +9.3 64 +16 +16 1017.4 1001.7
21 12.06 С 3 н/о н/о +16.3 +9.5 64 +16 +16 1018.0 1002.3
23 12.06 штиль 0 н/о 10/0 2000 м
[]
+17.8 +10.2 61 +18 +19 1019.4 1003.7
00 13.06 З 3 н/о н/о +20.1 +10.8 55 +22 +22 комфорт 1019.9 1004.2
02 13.06 СЗ 5 н/о 9/0
[]
+23.4 +11.1 46 +26 +28 жарко 1019.0 1003.3 +15.9
03 13.06 З 4 н/о н/о +23.6 +10.6 44 +25 +25 комфорт 1017.5 1001.8
05 13.06 ЮЗ 5 н/о 10/0 2000 м
[]
+23.8 +11.5 46 +25 +26 комфорт 1017.2 1001.5
06 13.06 ЮЗ 5 н/о н/о +23.1 +12.4 51 +26 +26 жарко 1017.2 1001.5
08 13.06 Ю 3 н/о 10/0 2000 м
[]
+21.9 +12.2 54 +24 +24 комфорт 1017.8 1002.1
09 13.06 ЮЗ 4 н/о н/о +21.4 +12.5 57 +24 +24 комфорт 1018.5 1002.8
11 13.06 Ю 4 н/о 10/0 2000 м
[]
+20.1 +12.3 61 +22 +22 комфорт 1019.2 1003.5
12 13.06 ЮВ 3 н/о н/о +19.4 +12.7 65 +21 +21 комфорт 1019.3 1003.6
14 13.06 Ю 3 н/о 8/8 1500 м
[]
+18.0 +12.2 69 +18 +18 1019.4 1003.7 +25.5
15 13.06 ЮВ 3 н/о н/о +17.2 +11.2 68 +17 +17 1018.9 1003.2
17 13.06 Ю 4 н/о 10/10 1500 м
[]
+16.5 +11.0 70 +16 +16 1018.6 1002.9
18 13.06 Ю 4 н/о н/о +15.4 +10.6 73 +15 +15 1018.7 1003.0
20 13.06 Ю 4 н/о 10/10 1000 м
[]
+15.3 +9.9 70 +14 +14 1019.2 1003.5
21 13.06 Ю 4 н/о н/о +15.1 +9.2 68 +14 +14 1020.0 1004.3
23 13.06 Ю 4 н/о 9/9 600 м
[]
+16.2 +8.7 61 +16 +16 1020.9 1005.2
00 14.06 ЮВ 5 н/о н/о +17.2 +9.1 59 +17 +17 1021.3 1005.5
02 14.06 ЮВ 5 н/о 4/4 1000 м
[]
+19.7 +7.8 46 +20 +23 1019.8 1004.1 +14.8
03 14.06 Ю 4 н/о н/о +20.5 +7.2 42 +22 +22 комфорт 1018.9 1003.2
05 14.06 Ю 4 н/о н/о +21.0 +6.9 40 +22 +22 комфорт 1018.1 1002.4
06 14.06 Ю 4 н/о н/о +20.7 +5.5 37 +22 +22 комфорт 1018.4 1002.7
08 14.06 ЮЗ 3 н/о н/о +18.4 +5.3 42 +19 +19 1019.2 1003.5
09 14.06 ЮЗ 3 н/о н/о +16.8 +5.7 48 +17 +17 1020.0 1004.3
11 14.06 ЮЗ 3 н/о н/о +14.3 +4.0 50 +14 +14 1020.7 1005.0
12 14.06 ЮЗ 3 н/о н/о +13.7 +3.8 51 +13 +13 1020.8 1005.1
14 14.06 Ю 3 н/о н/о +13.2 +5.6 60 +12 +12 1020.6 1004.9 +21.8
15 14.06 ЮВ 4 н/о н/о +13.3 +5.9 61 +12 +12 1020.3 1004.6
17 14.06 ЮВ 3 н/о н/о +12.1 +5.0 62 +11 +11 1020.1 1004.4
18 14.06 Ю 3 н/о н/о +11.5 +5.2 65 +10 +10 1019.9 1004.2
20 14.06 ЮВ 2 н/о 8/8 1500 м
[]
+9.9 +4.7 70 +9 +9 1020.8 1005.1
21 14.06 ЮВ 3 н/о н/о +10.3 +4.9 69 +9 +9 1021.3 1005.5
23 14.06 В 4 н/о н/о +12.8 +5.2 60 +11 +11 1022.5 1006.7
00 15.06 В 5 н/о н/о +15.2 +4.3 48 +14 +14 1022.7 1006.9
02 15.06 ЮВ 5 н/о н/о +18.0 +4.2 40 +18 +18 1021.7 1005.9 +9.9
03 15.06 ЮВ 4 н/о н/о +18.3 +3.4 37 +18 +18 1020.4 1004.7
05 15.06 ЮВ 3 н/о н/о +18.8 +1.8 32 +19 +19 1019.3 1003.6
06 15.06 ЮВ 3 н/о н/о +19.1 +1.1 30 +19 +19 1019.1 1003.4
08 15.06 ЮВ 3 н/о н/о +16.8 0.0 32 +17 +17 1019.7 1004.0
09 15.06 Ю 3 н/о н/о +15.3 +1.1 38 +15 +15 1020.2 1004.5
11 15.06 ЮВ 3 н/о н/о +13.8 +1.5 43 +13 +13 1020.9 1005.2
12 15.06 ЮВ 4 н/о н/о +12.9 +2.2 48 +12 +12 1020.8 1005.1
14 15.06 ЮВ 3 н/о н/о +12.3 +2.7 52 +11 +11 1020.2 1004.5 +19.5
15 15.06 ЮВ 3 н/о н/о +11.7 +3.0 55 +11 +11 1020.0 1004.3
17 15.06 ЮВ 2 н/о 10/0
[]
+11.3 +3.3 58 +11 +11 1020.0 1004.3
18 15.06 штиль 0 н/о н/о +10.7 +3.7 62 +10 +10 1019.8 1004.1
20 15.06 ЮВ 2 н/о 10/0 2000 м
[]
+11.3 +4.3 62 +10 +10 1020.1 1004.4
21 15.06 Ю 1 н/о н/о +10.9 +4.4 64 +12 +12 1021.1 1005.3
23 15.06 В 2 н/о н/о +13.3 +3.4 51 +13 +13 1021.4 1005.6
00 16.06 ЮВ 2 н/о н/о +14.5 +3.3 47 +15 +15 1022.3 1006.5
02 16.06 В 2 н/о н/о +17.8 +1.3 33 +18 +18 1021.4 1005.6 +10.7
03 16.06 ЮВ 3 н/о н/о +18.2 +0.4 30 +18 +18 1020.4 1004.7
05 16.06 Ю 4 н/о 5/0 2000 м
[]
+19.3 +0.4 28 +20 +22 1019.6 1003.9
06 16.06 ЮЗ 3 н/о н/о +19.5 +0.5 28 +20 +20 1019.7 1004.0
08 16.06 Ю 4 н/о 5/0 2000 м
[]
+17.1 +0.3 32 +17 +17 1020.4 1004.7
09 16.06 ЮЗ 3 н/о н/о +15.4 0.0 35 +15 +15 1021.3 1005.5
11 16.06 ЮЗ 3 н/о н/о +13.1 +0.5 42 +12 +12 1022.6 1006.8
12 16.06 Ю 3 н/о н/о +12.4 +1.1 46 +11 +11 1022.9 1007.1
14 16.06 ЮВ 3 н/о н/о +11.7 +1.4 49 +10 +10 1022.7 1006.9 +20.2
15 16.06 Ю 2 н/о н/о +9.9 +1.8 57 +9 +9 1022.5 1006.7
17 16.06 ЮВ 3 н/о н/о +9.5 +2.4 61 +7 +7 1022.2 1006.4
18 16.06 ЮВ 3 н/о н/о +9.3 +1.9 60 +7 +7 1022.1 1006.3
20 16.06 ЮЗ 2 н/о н/о +6.5 +1.4 70 +4 +4 1022.6 1006.8
21 16.06 Ю 2 н/о н/о +6.5 +2.4 75 +5 +5 1023.2 1007.4
23 16.06 ЮВ 2 н/о н/о +11.3 +4.5 63 +10 +10 1024.6 1008.8
00 17.06 В 4 н/о н/о +14.5 +4.2 50 +13 +13 1025.2 1009.4

 

Местоположение метеостанции Таргоминда (Квинсленд, Австралия): широта -27.98 долгота 143.81 высота над уровнем моря 132 м.

В архиве по умолчанию представлена погода в Таргоминде за последнюю неделю. Архивные данные за месяц целиком и за предыдущие месяцы, начиная с января 2011 года, Вы можете получить, выбрав интересующий диапазон дат из раскрывающегося списка и нажав кнопку "Ввод!".


*Определитесь, кто Вы:
робот инопланетянин человек

Внимание! Время в таблицах - всемирное. Для получения местного времени необходимо прибавить поправку, которая равна 10 ч.

Смотрите также архив погоды в соседних городах и на ближайших метеорологических станциях:

Погода в Месторождении Ballera (Квинсленд, Австралия) (206 км)
Погода в Тибообере (Новый Южный Уэльс, Австралия) (237 км)
Погода в Чарвилле (Квинсленд, Австралия) (299 км)
Погода в Бурке (Новый Южный Уэльс, Австралия) (309 км)
Погода в Уафт Клифс (Новый Южный Уэльс, Австралия) (327 км)
Погода в Мумбе (Южная Австралия, Австралия) (355 км)
Погода в Уилкании (Новый Южный Уэльс, Австралия) (396 км)
Погода в Фоулерс Гэп (Новый Южный Уэльс, Австралия) (401 км)
Погода в Блэколле (Квинсленд, Австралия) (428 км)
Погода в Кобаре (Новый Южный Уэльс, Австралия) (435 км)

Пояснения к столбцам:

Ветер - указаны скорость ветра в м/с - средняя за 10 мин, порывы в срок и между сроками (в фигурных скобках) и направление, откуда дует ветер: С - северный, СВ - северо-восточный, В - восточный, ЮВ - юго-восточный, Ю - южный, ЮЗ - юго-западный, З - западный, СЗ - северо-западный.
Видимость - горизонтальная дальность видимости в метрах или километрах. При видимости от 1 до 10 км при отсутствии осадков обычно наблюдается дымка, при ухудшении видимости до 1 км и менее - туман. В сухую погоду видимость может ухудшаться дымом, пылью или мглою.
Явления - указаны атмосферные явления, наблюдавшиеся в срок или в последний час перед сроком; фигурными скобками обозначены явления, наблюдавшиеся между сроками (за 1-3 часа до срока); квадратными скобками обозначены град или гололедные отложения с указанием их диаметра в мм.
Облачность - указаны через наклонную черту общая и нижняя облачность в баллах и высота нижней границы облаков в метрах; квадратными скобками обозначены формы облаков: Ci - перистые, Cs - перисто-слоистые, Cc - перисто-кучевые, Ac - высококучевые, As - высокослоистые, Sc - слоисто-кучевые, Ns - слоисто-дождевые, Cu - кучевые, Cb - кучево-дождевые. Подробнее классификацию облаков см. в Атласе облаков (PDF).
T - Температура воздуха - температура, измеренная на высоте 2 м над землей.
Td - Температура точки росы - температура, при понижении до которой содержащийся в воздухе водяной пар достигнет насыщения.
f - Относительная влажность воздуха - влажноcть воздуха, измеренная на высоте 2 м над землей.
Te - Эффективная температура - температура, которую ощущает одетый по сезону человек в тени. Характеристика душности погоды. При расчете учитывается влияние влажности воздуха и скорости ветра на теплоощущения человека.
Tes - Эффективная температура на солнце - температура, которую ощущает человек, с поправкой на солнечный нагрев. Характеристика знойности погоды. Зависит от высоты солнца над горизонтом, облачности и скорости ветра. Ночью, в пасмурную погоду, а также при ветре 12 м/с и более поправка равна нулю.
P - Атмосферное давление - приведенное к уровню моря атмосферное давление.
Po - Атмосферное давление - измеренное на уровне метеостанции атмосферное давление.
Tmin - Минимальная температура - минимум температуры воздуха на высоте 2 м над землей.
Tmax - Максимальная температура - максимум температуры воздуха на высоте 2 м над землей.
R - Количество осадков - Количество выпавших осадков за период времени, мм. При наведении курсора мыши на число - период времени, за который выпало указанное количество осадков.
R24 - Количество осадков - Количество выпавших осадков за 24 часа, мм.
S - Снежный покров - Высота снежного покрова, см. При наведении курсора мыши на число - состояние снежного покрова и степень покрытия местности в баллах.